OneWeb SL0560

operational
NORAD ID: 55145 Int'l Des: 2023-004 Owner: ONEWEBN Country: UK Constellation: oneweb
LEOCIRCULARPOLARONEWEB_TYPE

About OneWeb SL0560

Description loading...

Live Position

Loading 3D Globe...

Upcoming Passes

Altitude History

Altitude vs Time

uPlot chart will show altitude changes over time

Two-Line Element Set

1 55145U 23004F 25306.50752223 .00000006 00000-0 -17055-4 0 9990
2 55145 87.9218 20.4963 0002109 102.9270 257.2098 13.18687141139831
Epoch: Nov 2, 2025 • Age: 5 hours

Current Status

Altitude 1194.4 km
Velocity 7.26 km/s
Sub-Earth Point -10.00°S, 93.12°W
Launch Date Jan 10, 2023
Age 2.8 years
Type internet

Technical Details

Classification Payload
Mass 148.00 kg
Dry Mass 140.00 kg
Total Mass 148.00 kg
Length 1.30 m
Diameter 1.00 m
Span 5.00 m
Shape Trapezoid+2 pan
Manufacturer ONEWUS
Bus Type ARROW
Phase Status In Orbit
Owner/State ONEWEBN/UK

Large Constellations

Loading constellations...